Location: Unspecified
(0.0000°N, 0.0000°E)
Time: 03:47:16
(UTC+00:00)

Vanguard 1 Rocket - Visible Passes

Search period start: 23 October 2014 00:00
Search period end: 02 November 2014 00:00
Orbit: 654 x 4226 km, 34.3° (Epoch: 21 October)

Date Brightness Start Highest point End Pass type
(mag) Time Alt. Az. Time Alt. Az. Time Alt. Az.
23 Oct 10.7 19:10:04 10° SW 19:30:27 53° SE 19:42:44 36° E visible
23 Oct 10.5 21:39:07 10° WSW 22:00:05 67° W 22:00:05 67° W visible
24 Oct 10.9 17:59:03 10° SSW 18:15:30 37° SE 18:36:08 13° E visible
24 Oct 10.3 20:25:44 10° SW 20:49:15 84° SE 20:53:28 73° ENE visible
24 Oct 11.3 22:59:07 10° WSW 23:10:49 31° W 23:10:49 31° W visible
25 Oct 10.5 19:13:38 10° SW 19:34:06 64° SE 19:46:54 39° ENE visible
25 Oct 10.6 21:43:20 10° WSW 22:04:15 60° WNW 22:04:15 60° WNW visible
26 Oct 10.7 18:02:34 10° SSW 18:19:26 45° SE 18:40:21 15° E visible
26 Oct 10.4 20:29:35 10° SW 20:52:45 83° NW 20:57:42 70° NNE visible
26 Oct 11.4 23:04:26 10° W 23:15:04 27° WNW 23:15:04 27° WNW visible
27 Oct 10.4 19:17:18 10° SW 19:37:38 75° SE 19:51:12 40° ENE visible
27 Oct 10.8 21:47:53 10° WSW 22:08:33 51° NW 22:08:33 51° NW visible
28 Oct 10.6 18:06:07 10° SW 18:23:08 54° SE 18:44:42 16° ENE visible
28 Oct 10.5 20:33:40 10° WSW 20:56:20 71° NW 21:02:04 62° NNE visible
28 Oct 11.5 23:10:17 10° W 23:19:25 23° WNW 23:19:25 23° WNW visible
29 Oct 10.3 04:39:31 10° N 04:43:08 12° N 04:46:08 10° NNE visible
29 Oct 10.4 19:21:06 10° SW 19:41:09 87° SE 19:55:35 39° NE visible
29 Oct 10.9 21:52:50 10° W 22:12:57 44° NW 22:12:57 44° NW visible
30 Oct 10.7 03:26:04 10° NNW 03:29:36 11° N 03:32:47 10° NNE visible
30 Oct 10.4 18:09:46 10° SW 18:26:40 65° SE 18:49:07 17° ENE visible
30 Oct 10.6 20:38:01 10° WSW 21:00:04 60° NW 21:06:29 53° N visible
30 Oct 11.6 23:16:42 10° WNW 23:23:50 19° WNW 23:23:50 19° WNW visible
31 Oct 11.0 02:19:20 11° NNE 02:19:20 11° NNE 02:20:36 10° NNE visible
31 Oct 10.1 04:41:25 10° NNW 04:48:13 18° NNE 04:53:01 10° ENE visible
31 Oct 10.4 19:25:06 10° WSW 19:44:44 80° NW 20:00:00 36° NE visible
31 Oct 11.1 21:58:13 10° W 22:17:22 37° NW 22:17:22 37° NW visible
01 Nov 10.6 03:29:58 12° NNW 03:35:02 15° N 03:40:18 10° NE visible
01 Nov 10.3 18:13:32 10° SW 18:30:12 77° SE 18:53:31 16° ENE visible
01 Nov 10.8 20:42:42 10° WSW 21:04:03 51° NW 21:10:53 45° N visible
01 Nov 11.7 23:23:32 10° WNW 23:28:14 15° WNW 23:28:14 15° WNW visible
